Location: Hurstbourne Priors
(51.2000°N, 1.3667°W)
Time: 16:38:02
(UTC+00:00)

Cosmos 468 Rocket - Pass Details

Date: 09 April 2020
Orbit: 745 x 779 km, 74.0° (Epoch: 02 June)

Event Time Altitude Azimuth Distance (km) Brightness Sun altitude
Rises 20:32:07 0° 335° (NNW) 3,222 8.3 -15.0°
Reaches altitude 10° 20:34:30 10° 337° (NNW) 2,288 7.4 -15.3°
Maximum altitude 20:39:42 78° 64° (ENE) 771 3.9 -16.0°
Enters shadow 20:42:43 25° 148° (SSE) 1,470 4.9 -16.4°
